Theta_e
354 353 354 354 353 353 353 352 353 354 354 354 352 351 349 349 348 347 346 345 345 346 347 346 347 346 347 349 348 344 346 349 351 350 349 348 349 349 349 349 348 347 347 347 345 344 345 343 342 341 338 337 338 338 336 335 334 336 334 326 320 323 322
353 352 354 354 353 354 352 351 351 352 352 352 352 352 350 348 348 348 346 343 344 345 347 348 348 346 345 343 343 341 342 346 348 350 349 349 349 349 348 348 348 347 346 345 344 344 344 342 340 341 339 337 337 337 336 335 335 335 332 324 319 319 320
351 352 352 351 353 353 352 351 351 351 352 352 352 351 348 347 347 349 348 346 346 346 349 351 348 343 341 341 344 344 345 346 347 349 349 348 348 348 347 347 347 346 345 344 343 343 342 339 337 340 339 338 337 336 337 336 335 332 325 319 318 319 321
351 352 350 349 351 352 352 352 351 351 352 351 352 351 348 349 349 349 349 350 350 349 351 352 348 345 346 345 345 345 346 348 349 348 348 348 347 347 346 346 345 346 344 344 343 344 343 340 338 340 339 338 337 337 338 336 332 326 320 316 317 320 322
350 351 348 348 350 350 351 352 351 351 351 351 351 351 351 350 350 350 351 352 352 351 352 352 350 349 347 346 345 345 345 347 348 348 348 348 347 346 346 345 344 344 344 344 344 344 345 343 341 340 340 339 338 337 337 333 325 319 315 314 316 319 322
348 347 345 346 348 350 350 350 352 350 350 350 350 351 351 351 350 351 351 352 352 352 352 351 350 349 347 346 345 345 346 346 347 348 347 347 346 345 345 344 344 344 344 344 344 343 343 341 340 339 339 339 338 337 335 327 318 312 311 312 315 318 319
346 344 345 344 344 347 350 350 352 350 350 350 350 351 351 350 350 351 351 352 351 351 350 349 349 348 348 347 346 346 347 347 348 347 347 348 347 345 344 344 344 344 344 344 344 343 341 341 340 340 339 338 336 335 330 320 311 309 309 310 311 313 314
345 345 345 345 344 345 349 350 351 351 350 349 349 350 350 350 351 350 352 352 351 351 351 350 350 349 348 349 348 348 348 348 348 348 348 348 346 344 343 343 344 344 344 345 345 343 342 342 340 339 337 336 335 334 326 315 309 308 307 307 308 308 310
346 347 346 345 345 346 348 349 349 349 349 349 349 350 350 351 351 350 352 352 351 352 352 350 350 350 350 349 349 349 347 347 349 348 347 347 345 344 343 342 344 345 345 345 344 343 343 341 339 337 336 336 336 331 321 311 307 308 307 307 307 310 315
346 347 346 346 345 345 346 348 350 350 349 349 349 349 350 352 352 351 352 352 352 352 350 349 348 348 347 347 348 349 347 347 349 348 347 346 345 344 343 342 344 345 345 345 344 343 343 341 338 337 336 336 335 325 314 308 307 307 307 307 309 313 319
345 345 346 346 346 346 346 348 350 350 350 351 350 350 351 352 352 352 352 352 352 352 351 350 348 347 347 346 347 349 348 348 349 348 347 345 344 344 343 342 343 344 345 345 343 342 341 339 338 337 336 337 332 320 309 307 307 307 307 308 312 317 322
345 345 346 345 346 347 346 348 351 350 351 351 351 351 352 353 353 353 352 352 352 352 352 351 349 348 349 349 347 348 348 347 347 347 345 343 343 344 343 341 342 343 344 344 342 341 340 339 338 337 337 336 329 317 308 307 307 306 307 309 315 321 324
343 344 343 343 345 347 348 350 352 352 352 352 352 352 352 353 353 354 354 353 353 353 353 352 351 350 350 348 347 348 348 347 346 346 345 344 345 345 342 341 342 344 344 342 341 340 339 339 338 336 337 334 324 314 309 307 306 307 308 313 320 325 325
344 343 343 343 347 349 351 351 352 353 354 353 354 354 354 354 354 354 355 355 352 352 352 353 352 351 350 347 346 347 348 349 348 347 346 346 346 344 341 342 343 344 344 342 341 340 339 339 337 337 337 332 320 311 308 306 306 309 311 316 323 326 325
345 345 347 349 350 351 351 352 352 354 354 355 355 355 355 355 355 355 354 353 350 349 351 351 352 352 349 346 346 347 348 348 348 348 347 347 345 343 342 342 343 344 344 343 341 341 339 338 337 337 334 326 316 309 308 307 306 309 312 317 323 326 325
344 343 346 351 353 352 353 353 354 354 355 356 355 356 355 356 356 355 352 351 352 353 352 350 349 349 348 347 347 346 347 347 347 348 347 347 345 343 342 342 343 343 343 342 341 340 338 338 338 336 328 319 314 311 312 310 307 309 313 317 322 324 325
344 345 348 352 353 353 353 354 354 355 356 356 357 357 355 353 353 352 351 352 354 354 353 350 348 346 345 346 346 346 346 346 346 346 347 348 345 343 343 342 342 344 343 342 341 339 338 338 337 335 328 320 315 315 316 315 312 310 312 316 321 323 324
347 347 351 354 354 353 353 354 355 354 355 355 357 356 352 348 348 348 350 352 352 352 350 349 348 346 346 346 345 345 345 345 345 345 346 348 346 343 342 342 342 343 342 341 340 338 339 339 337 336 332 321 316 319 320 320 318 313 309 313 321 324 323
348 350 354 355 354 354 353 355 355 355 354 355 355 353 349 346 345 345 347 350 350 349 348 347 347 347 347 347 345 345 345 344 345 345 345 347 346 344 343 342 342 342 341 340 340 339 339 338 336 336 331 320 318 322 323 323 321 313 305 309 317 321 322
349 352 355 354 355 355 354 353 353 352 353 354 353 352 349 346 344 344 346 349 349 348 348 347 347 347 347 346 345 345 345 344 345 345 344 346 345 344 344 343 342 343 341 340 340 340 339 338 336 336 331 321 319 322 323 323 318 310 304 306 311 318 322
350 352 353 354 356 356 354 353 351 350 352 353 353 353 350 347 345 346 348 349 349 348 348 348 347 348 346 346 345 345 345 345 345 344 345 345 344 344 343 343 343 343 342 341 341 340 339 338 336 335 331 321 316 319 322 320 314 308 307 305 306 312 318
348 349 352 354 355 355 356 355 351 349 353 355 355 354 353 349 347 348 349 349 349 348 348 348 347 347 346 345 345 344 345 344 344 344 344 344 344 343 343 343 343 342 342 341 341 340 340 337 335 334 332 323 315 317 319 316 311 309 309 306 305 308 311
344 347 351 353 353 354 355 354 349 349 353 356 354 353 352 350 348 348 349 348 348 348 348 347 347 346 346 345 344 344 344 344 343 344 344 343 343 343 342 342 342 341 341 340 340 340 338 335 334 334 330 321 315 316 317 314 313 314 313 310 307 307 307
342 344 346 350 351 351 351 352 350 349 350 351 350 350 351 350 348 348 348 348 349 349 348 348 347 346 345 345 345 345 345 344 343 343 341 341 341 340 340 341 341 340 339 339 340 339 336 334 334 331 324 316 315 315 315 315 318 321 321 315 310 307 307
341 342 343 346 349 350 351 351 350 350 349 348 348 351 351 350 349 347 348 350 350 349 348 349 348 346 344 344 345 345 344 343 344 342 341 340 340 340 340 340 339 339 339 339 338 337 336 334 331 325 317 314 315 315 316 320 324 326 327 321 311 307 307
341 343 343 345 350 352 352 352 351 352 352 350 350 352 352 351 349 347 348 351 351 348 348 348 347 345 342 343 345 345 344 343 343 342 341 341 339 337 338 339 339 339 338 335 333 332 330 325 320 318 316 316 318 320 324 327 328 329 330 325 312 307 307
343 344 344 348 353 353 353 354 354 352 352 352 352 352 352 350 349 348 349 350 349 348 348 348 347 344 342 343 344 345 344 343 342 341 341 340 335 330 330 333 334 335 332 328 328 327 322 316 317 322 324 323 326 328 329 330 329 331 332 325 312 307 307
344 345 345 349 354 355 354 355 352 349 349 350 351 352 351 349 348 349 351 351 350 349 348 347 347 345 343 342 343 344 345 343 343 342 341 336 328 324 324 325 326 327 327 326 326 325 321 320 323 327 329 330 331 331 331 332 331 332 331 324 314 310 308
347 347 348 352 355 355 353 351 348 345 344 345 348 351 350 346 347 349 350 348 348 348 348 348 348 347 345 343 343 344 345 344 343 343 339 332 328 327 324 323 325 328 329 329 328 326 326 328 329 330 331 332 332 332 332 333 332 332 331 326 319 316 312
349 349 351 353 353 353 351 348 346 346 346 345 345 346 345 345 348 349 347 344 345 347 348 348 348 348 347 346 343 343 344 344 344 343 338 331 331 331 327 324 326 328 329 331 333 332 332 333 333 334 333 333 333 333 333 333 332 333 332 328 325 322 318
349 350 351 351 351 351 349 348 348 347 347 347 345 343 344 347 349 349 346 343 345 346 347 348 347 347 347 346 343 341 342 344 345 344 339 332 331 333 331 329 329 330 331 334 335 335 335 334 334 334 334 333 333 332 332 332 332 333 332 329 328 326 323
348 348 347 347 348 349 348 348 350 348 347 346 344 344 347 350 350 349 347 346 346 346 347 347 348 347 346 344 342 340 341 343 345 344 340 333 329 331 333 335 335 335 335 334 333 334 334 333 333 331 329 328 328 329 331 331 332 333 332 330 329 327 325
346 346 344 342 343 347 349 349 349 348 347 345 342 341 344 348 349 348 348 349 347 346 347 347 348 348 346 344 342 342 343 344 345 344 340 336 334 335 336 338 338 337 337 335 334 334 334 333 333 330 326 324 323 323 327 329 331 332 331 329 328 325 324
347 346 345 342 340 343 346 348 348 348 347 346 342 339 340 344 346 347 348 350 348 346 346 347 348 349 348 346 346 345 345 345 345 346 344 341 341 341 340 340 339 338 338 338 336 335 334 334 335 332 329 327 322 318 319 322 326 328 327 325 324 321 321
347 345 344 345 344 343 342 344 346 346 343 341 340 338 339 340 341 344 347 348 347 346 345 345 347 348 348 347 347 347 347 346 346 347 346 345 344 344 343 342 342 340 340 338 337 336 336 335 336 335 335 334 330 323 319 317 317 319 320 319 316 314 316
346 343 340 341 343 341 338 339 341 340 339 338 338 338 339 339 340 342 344 345 346 346 344 345 347 348 348 349 348 347 348 347 346 347 347 346 346 346 345 345 344 343 342 339 338 337 337 336 337 338 338 338 335 332 331 327 318 312 312 312 310 309 310
340 335 331 333 336 337 338 340 340 340 339 339 337 337 339 340 341 341 342 342 344 345 346 346 347 347 348 348 348 348 349 348 347 347 348 347 347 347 347 346 345 344 343 341 340 340 340 340 341 341 341 340 338 336 336 333 321 310 308 308 307 307 308
331 328 330 335 338 340 342 343 342 341 342 340 338 338 340 340 341 341 341 341 342 345 347 347 347 347 347 347 347 347 347 347 347 347 348 347 347 346 346 346 345 344 343 342 343 343 343 343 344 343 342 342 341 339 336 331 322 313 308 307 307 307 307
Wind_Speed
16 12 11 10 10 10 10 8 6 6 4 2 3 4 3 3 3 3 4 4 5 5 6 7 7 7 5 3 4 5 5 8 9 7 7 7 6 6 6 6 6 7 8 9 8 6 3 1 1 3 4 4 2 1 2 5 8 11 13 11 7 6 7
16 13 11 10 10 10 10 9 7 7 5 3 2 3 3 4 3 2 3 5 6 6 7 8 8 7 4 3 3 5 6 7 9 9 9 9 8 8 8 8 8 7 7 9 8 7 4 2 2 1 0 1 1 2 3 5 9 12 14 10 6 6 7
16 14 12 10 10 10 10 11 9 7 6 5 3 2 3 4 4 3 3 4 5 6 7 7 6 5 4 4 4 6 6 7 8 9 9 8 7 7 7 6 7 6 5 7 7 7 7 5 4 3 3 3 3 3 5 7 10 12 11 7 5 6 8
16 14 12 11 11 11 11 11 10 9 7 6 4 2 3 5 5 4 3 3 4 5 6 6 4 4 4 3 3 5 6 7 8 8 8 6 5 5 5 5 5 5 4 6 7 9 9 6 5 5 5 5 5 5 6 9 11 10 7 5 5 6 7
17 15 12 12 12 12 12 13 12 10 8 7 5 2 2 3 4 3 3 3 3 4 5 4 2 3 4 3 2 4 6 7 7 7 7 5 4 4 4 4 4 4 4 6 9 10 8 5 5 6 6 6 6 6 8 11 11 7 5 6 5 5 5
18 15 12 12 12 11 12 13 13 12 9 6 5 4 3 2 1 1 2 2 3 4 4 3 1 1 2 2 2 3 5 6 6 7 6 5 3 3 3 4 4 5 7 9 11 10 6 4 5 6 6 6 6 7 9 11 9 7 6 5 5 5 4
15 14 13 12 9 8 10 10 12 12 9 7 6 5 5 4 3 1 2 3 4 5 4 2 1 2 2 2 2 3 5 6 6 5 5 4 2 2 4 4 5 7 9 11 11 8 6 5 5 6 6 6 6 7 9 10 8 7 6 4 5 5 3
13 12 13 11 9 9 11 11 11 12 10 8 7 6 5 4 5 4 2 3 3 3 2 2 2 2 3 3 2 3 4 6 7 6 5 4 2 3 5 4 6 7 10 11 10 7 6 5 5 5 4 4 5 8 10 9 8 7 6 5 5 5 3
15 13 13 14 13 13 14 12 11 11 9 7 6 5 4 3 4 4 4 4 3 2 1 2 3 4 5 5 3 3 4 6 7 6 5 5 5 5 5 5 6 9 10 11 10 8 6 5 4 3 3 4 7 10 10 8 7 7 6 6 6 6 7
19 18 17 16 14 12 12 11 10 9 6 5 4 5 5 4 4 4 5 6 6 4 1 1 3 3 4 4 3 4 5 6 6 5 4 4 5 6 7 7 8 10 11 10 9 7 6 4 3 3 4 6 9 10 9 7 7 7 7 6 6 7 8
19 18 16 13 11 10 10 10 9 7 5 4 3 5 6 6 5 5 6 8 7 5 3 1 2 0 1 2 3 4 4 5 5 5 4 4 6 7 8 8 8 10 10 9 7 5 4 2 2 3 4 6 10 10 8 8 8 8 7 5 6 7 7
18 15 13 10 8 8 9 9 8 7 5 3 4 6 8 7 6 6 7 8 6 5 4 2 2 1 1 2 3 3 3 4 5 5 5 6 8 8 7 6 7 9 9 8 7 5 4 2 2 2 4 7 10 9 9 10 9 8 7 5 6 6 5
17 14 12 9 8 9 10 10 8 7 4 2 3 7 8 7 6 5 5 5 4 4 4 3 2 2 2 3 3 3 3 4 5 6 6 7 9 9 7 5 7 9 10 9 8 6 5 4 3 2 4 8 9 8 9 10 8 8 7 7 7 5 4
16 14 12 10 10 10 11 11 8 6 4 3 6 7 7 6 5 3 2 2 2 3 4 4 3 3 3 4 3 3 3 4 6 6 6 8 10 9 7 6 7 8 10 10 9 6 5 4 2 2 5 9 8 6 9 9 9 9 8 8 7 4 4
17 16 14 11 11 11 11 10 8 5 5 6 7 7 7 6 4 2 2 2 3 3 4 4 4 3 2 2 2 3 4 5 5 5 6 8 9 8 8 7 7 7 8 9 8 6 5 3 1 4 8 8 5 5 9 10 10 10 8 7 7 4 5
18 16 14 12 12 12 11 10 8 6 6 6 6 6 6 5 4 2 2 2 3 3 4 4 3 1 0 2 3 3 3 4 5 5 6 8 9 9 9 9 9 8 8 8 8 6 5 2 2 6 8 6 3 6 10 11 13 11 8 6 6 4 4
18 15 13 13 14 13 11 10 8 6 6 7 7 6 5 4 4 3 2 1 2 3 3 2 1 1 1 1 1 1 2 3 4 4 7 9 9 9 10 10 10 10 9 9 8 6 4 1 3 6 9 7 4 7 10 12 14 12 8 5 5 3 2
19 17 16 16 14 12 10 10 9 6 5 7 8 6 4 4 4 2 1 1 2 2 2 1 1 2 2 1 1 1 1 2 3 5 8 10 9 8 9 10 10 11 10 9 8 6 3 1 4 6 9 9 5 6 10 12 13 13 9 4 2 1 3
20 18 18 16 14 11 9 10 9 6 5 6 6 5 4 4 3 2 2 3 2 2 2 2 2 2 2 2 1 1 1 1 3 7 9 10 9 8 9 9 11 13 12 11 9 6 3 1 3 6 9 9 5 5 8 11 11 12 11 6 1 1 4
19 19 17 15 13 10 9 9 8 6 6 6 6 5 4 4 4 4 4 4 3 2 3 2 2 3 2 1 1 2 3 4 5 7 8 10 10 9 9 9 10 12 12 11 9 6 2 1 3 5 8 8 4 4 7 10 10 11 12 8 3 3 5
19 18 17 15 13 10 8 7 7 7 8 8 7 6 5 5 6 5 4 4 3 3 3 3 3 3 2 1 2 3 4 5 6 6 8 10 10 10 10 9 10 11 11 10 8 6 3 2 3 5 7 7 5 5 7 9 9 10 12 11 6 4 6
19 18 16 15 12 10 8 6 7 9 9 8 7 6 4 4 5 5 4 3 3 3 3 3 3 3 3 3 4 4 5 6 7 7 9 10 10 10 10 10 11 12 11 11 9 7 4 4 4 5 8 8 7 6 6 7 9 12 14 14 11 7 6
18 16 15 14 11 9 8 7 8 9 8 8 7 5 4 4 4 4 4 2 2 3 3 2 2 2 3 5 5 6 6 7 8 9 10 10 10 10 10 11 13 13 13 12 10 7 5 4 4 6 8 9 7 5 4 6 10 14 16 16 15 12 8
16 15 14 13 11 9 8 8 8 9 8 8 8 7 5 4 4 3 3 2 2 2 2 2 1 1 4 5 6 7 8 8 8 9 10 10 10 10 11 12 13 14 13 12 9 6 4 3 4 6 7 7 5 2 4 8 12 15 17 18 18 16 12
16 15 14 12 10 9 9 9 10 9 8 7 7 7 5 4 3 2 2 1 1 1 1 2 3 3 4 5 6 8 8 8 8 8 9 10 10 10 10 11 12 13 11 9 6 4 3 4 6 6 5 3 3 5 8 11 13 15 17 19 19 18 16
16 16 14 12 11 10 9 10 10 10 8 7 7 5 4 4 3 1 1 1 0 1 2 3 4 5 5 5 6 8 8 8 8 8 9 9 9 8 8 9 10 9 8 6 5 4 4 4 3 2 5 8 9 9 11 12 12 14 16 18 19 19 17
14 13 13 12 11 11 11 11 10 9 8 7 6 4 3 3 3 2 0 1 1 1 1 2 3 4 4 5 6 7 8 8 7 8 8 8 7 6 6 7 7 6 5 4 2 1 1 1 4 6 8 10 9 9 10 10 10 12 15 18 19 18 18
13 13 13 12 11 12 13 12 9 8 7 5 4 4 3 3 2 2 1 0 1 2 1 1 2 3 4 5 5 6 7 7 7 7 8 9 7 6 7 7 7 6 5 4 3 3 3 5 6 6 6 6 7 7 7 8 9 11 14 16 18 19 19
15 15 16 15 14 14 13 11 9 9 8 5 4 3 3 2 2 2 2 1 2 3 3 2 2 2 2 3 5 6 6 6 7 8 9 9 9 8 9 10 10 9 8 6 5 4 4 5 5 4 3 3 5 6 6 7 8 10 13 14 16 19 20
18 17 17 17 17 14 11 9 9 9 9 7 4 3 3 2 2 3 3 3 3 3 4 3 2 1 1 1 4 6 7 7 7 8 10 11 11 10 11 11 10 9 7 6 5 4 4 3 2 3 3 4 6 7 7 6 7 9 11 13 15 18 20
18 18 17 16 15 11 9 8 8 9 9 8 6 5 5 5 4 4 4 5 4 3 4 4 3 2 1 1 4 6 8 7 7 8 9 10 10 9 9 8 7 6 5 4 4 3 2 2 2 4 5 6 7 8 8 7 7 8 10 12 14 16 19
17 16 15 14 12 9 9 10 10 9 8 8 8 7 8 7 6 6 6 5 4 3 4 4 3 3 3 2 4 7 8 7 7 7 8 9 9 7 6 5 4 3 2 2 3 3 1 1 3 4 5 6 7 8 8 8 7 8 10 11 13 15 17
16 13 12 11 11 10 11 12 11 9 7 8 7 6 6 7 7 6 6 5 4 4 4 4 3 3 4 4 5 7 7 7 7 7 8 8 7 7 5 3 2 2 2 1 0 1 1 3 5 6 7 7 8 8 7 7 8 10 11 12 13 15 15
13 11 10 9 10 11 11 11 12 11 8 7 5 3 4 7 6 6 6 5 4 4 4 4 3 3 3 4 5 5 6 6 6 6 6 6 5 4 3 2 2 2 3 4 4 3 3 6 8 9 8 9 9 8 7 7 8 10 12 12 13 14 15
12 10 9 9 9 9 9 9 9 8 6 5 3 3 5 6 6 6 6 5 4 4 4 4 4 3 3 3 4 5 5 5 5 5 5 5 5 5 4 4 3 3 3 4 6 5 6 9 9 9 9 9 9 9 9 8 9 10 11 12 13 13 14
10 9 9 9 9 8 7 7 7 6 6 6 5 4 5 6 6 6 6 5 5 4 5 5 5 4 3 3 3 5 6 6 5 5 5 5 5 6 7 7 6 5 3 4 6 8 9 9 8 7 8 8 8 9 11 11 9 8 9 10 11 11 12
9 9 10 10 10 10 9 8 7 8 9 8 7 6 5 5 6 5 5 4 4 5 6 6 5 5 4 3 3 4 5 4 4 4 6 6 6 7 8 8 7 6 3 3 5 6 6 7 7 7 7 7 8 8 11 11 9 7 7 8 8 9 10
10 11 12 12 12 13 11 9 9 10 10 9 8 8 7 7 6 5 4 4 4 5 6 6 5 5 4 4 4 4 6 7 6 5 6 6 5 6 7 8 8 7 5 5 5 5 5 6 7 7 7 7 8 8 9 10 9 8 7 6 6 7 8
Wind_Direction
148 148 149 149 147 150 155 159 167 166 154 114 58 48 63 95 101 96 97 101 101 101 104 102 105 110 114 128 125 137 167 158 150 154 154 151 145 144 150 151 163 178 168 148 135 128 119 13 25 22 33 77 79 307 306 339 342 346 351 349 341 341 359
149 148 151 146 144 149 157 163 165 158 151 147 104 58 66 107 125 123 112 112 117 121 115 112 122 126 118 122 144 167 182 166 159 164 168 170 168 166 169 167 174 188 172 153 144 126 108 30 37 83 293 155 193 250 282 323 336 340 341 340 338 343 355
152 152 150 139 138 144 155 163 165 165 166 166 154 93 84 114 129 144 132 123 131 128 124 134 145 139 133 145 156 170 180 174 165 167 174 175 171 173 177 173 175 182 166 160 153 122 106 82 92 147 217 231 233 264 295 320 333 338 338 334 332 345 358
157 157 147 137 140 144 149 155 161 170 175 173 162 117 106 118 125 136 129 126 132 124 136 159 155 134 148 150 133 147 166 173 170 172 180 180 180 192 200 192 189 195 179 160 137 121 123 128 141 173 221 238 251 273 298 319 333 339 334 318 315 339 1
159 158 150 148 149 149 150 150 156 167 172 175 175 159 137 127 121 118 117 131 122 116 152 185 165 142 164 158 134 146 158 170 178 178 179 180 198 222 222 210 204 201 180 146 128 132 147 167 183 208 232 239 255 281 309 326 335 341 328 306 307 331 354
158 157 152 152 152 154 152 148 156 166 166 166 173 181 186 190 183 92 105 134 117 122 169 221 258 191 192 189 193 174 168 178 184 179 179 178 185 209 212 206 189 167 153 138 133 146 167 186 198 218 236 246 270 304 328 335 337 345 342 315 305 322 332
153 154 150 144 144 158 161 152 159 169 165 157 162 178 190 210 234 192 108 108 119 140 177 213 210 220 254 246 204 177 180 193 194 190 197 195 176 181 191 186 172 158 145 141 145 159 181 200 210 228 256 274 299 327 339 342 344 355 6 348 319 323 316
149 156 158 150 134 142 152 149 156 164 162 159 164 177 189 205 221 208 157 123 142 170 201 232 238 247 272 274 238 194 192 201 205 209 214 213 208 198 188 179 175 164 149 152 159 169 188 211 227 245 280 314 340 344 343 346 354 5 16 11 356 6 48
139 141 148 148 137 132 134 136 147 155 157 162 170 182 188 184 200 199 178 177 208 255 292 291 280 276 277 275 258 224 205 203 210 214 213 211 206 196 184 176 179 171 161 161 163 172 200 232 249 273 332 359 354 347 344 351 6 17 12 5 12 40 72
129 128 134 139 138 138 135 135 141 146 151 160 170 190 190 176 176 174 179 198 219 234 232 326 306 283 284 274 237 218 209 205 212 213 207 203 191 181 175 169 173 176 173 169 167 183 216 245 274 326 352 355 352 348 349 3 19 20 7 3 25 59 85
130 132 135 135 136 141 143 145 143 138 149 165 183 202 190 177 177 173 184 204 216 217 215 301 320 288 331 286 232 225 214 208 214 208 200 202 193 182 169 164 171 178 178 173 173 191 215 245 310 336 338 346 352 352 359 16 23 16 8 17 46 69 90
139 138 137 136 138 147 150 151 150 147 157 175 198 202 187 175 181 186 192 201 208 220 231 259 287 282 320 283 250 235 218 214 212 198 190 195 192 180 164 157 168 175 175 176 179 186 196 221 273 305 326 348 358 1 10 19 19 16 22 47 71 80 79
144 140 137 136 134 145 151 148 150 155 161 170 176 184 183 182 200 212 204 201 213 240 253 269 302 309 293 287 276 244 224 214 202 192 187 188 183 175 165 160 169 170 168 173 182 185 197 221 248 278 336 1 4 5 16 21 22 28 42 69 86 88 66
139 132 132 130 124 134 145 148 150 150 148 154 155 165 176 184 205 231 240 259 296 293 279 287 306 315 310 300 277 234 215 206 202 198 195 194 187 177 168 167 176 179 173 178 191 198 207 227 258 321 354 6 6 12 28 32 36 45 57 82 94 79 47
133 126 125 125 124 129 136 141 143 130 132 155 162 166 174 176 186 233 288 317 331 322 309 314 316 314 316 293 254 221 212 212 214 209 198 197 190 175 167 174 186 194 189 188 199 206 208 226 321 3 4 8 15 34 40 41 46 52 61 86 99 71 37
133 127 124 126 129 131 133 135 132 123 133 154 165 169 175 183 196 231 265 310 338 333 329 332 331 342 335 257 251 242 237 231 226 215 195 188 182 173 174 183 187 194 194 189 192 200 205 230 356 13 16 23 41 40 37 37 43 49 57 82 102 84 34
135 130 132 137 135 135 138 138 133 131 147 160 166 168 176 190 195 199 211 276 335 340 340 337 347 45 88 240 277 283 256 242 223 202 185 178 177 176 179 181 180 184 189 186 189 200 208 278 8 16 20 25 34 33 31 29 30 34 40 68 99 92 14
137 135 138 141 139 134 137 142 143 144 156 170 177 176 172 165 157 155 145 36 5 359 359 6 73 67 73 82 62 70 232 248 216 180 170 173 176 178 177 174 171 173 178 182 186 191 194 22 15 10 11 15 23 26 26 23 19 18 20 39 91 31 330
140 141 142 142 141 137 139 146 150 153 161 172 176 166 151 142 130 109 79 68 57 44 18 23 65 61 49 65 75 135 142 167 172 159 160 169 175 177 174 169 167 168 174 181 185 185 187 348 5 3 3 8 19 24 20 16 10 11 14 20 41 288 314
143 146 145 143 141 138 139 144 147 156 164 163 157 145 138 135 121 105 94 84 65 39 21 24 51 55 42 61 114 148 134 125 138 147 157 166 172 174 172 169 167 168 176 186 190 188 193 297 333 345 352 356 4 19 15 5 2 12 18 15 357 313 315
148 149 148 145 141 136 135 137 140 146 147 139 133 127 120 118 115 106 93 85 59 26 17 24 46 61 67 91 118 131 129 121 124 140 153 161 168 172 171 172 168 166 177 190 191 186 197 260 289 319 337 341 349 6 5 355 359 16 22 18 9 336 305
149 149 146 143 141 139 137 136 137 140 136 128 126 127 121 108 103 94 80 74 55 22 21 35 53 80 103 121 128 128 123 119 120 130 143 154 165 168 168 169 164 162 174 187 187 182 196 236 272 309 326 331 342 354 353 352 9 22 24 23 20 1 313
143 146 144 143 143 143 139 137 137 137 135 131 129 135 144 129 102 92 82 64 27 10 29 48 54 100 125 131 135 132 124 119 120 127 135 144 152 157 161 162 161 163 171 182 188 191 201 233 284 312 322 327 335 345 354 10 21 23 21 21 20 12 351
135 135 135 138 141 142 137 132 133 132 132 128 119 115 124 121 100 88 75 44 5 358 28 72 85 119 132 130 129 129 125 123 122 124 131 137 140 146 153 156 161 168 175 183 193 201 209 244 289 304 314 322 328 356 37 32 26 20 16 15 16 13 7
129 124 123 125 129 135 134 131 131 129 125 118 109 105 108 104 91 74 47 38 357 348 60 125 147 141 133 130 127 126 126 129 130 127 128 134 138 140 148 156 165 174 180 187 195 202 227 258 279 297 323 13 69 70 54 39 27 17 11 10 12 12 10
126 124 125 126 129 130 129 129 128 125 120 113 110 113 109 89 76 51 358 13 11 40 104 134 148 138 133 139 137 133 131 130 130 128 125 126 130 133 143 158 168 178 186 191 192 206 241 263 280 355 61 80 82 65 48 38 24 12 6 7 10 10 9
126 126 129 132 135 131 129 132 130 124 125 121 114 114 103 81 83 96 72 358 354 11 111 132 138 130 133 147 148 144 143 136 130 129 127 124 125 129 141 154 163 172 178 171 159 179 284 42 72 75 74 74 68 53 39 27 15 6 2 4 7 8 8
142 145 145 142 142 140 139 140 132 119 119 126 129 119 99 91 107 119 121 237 258 239 206 147 141 141 144 154 158 153 149 144 137 133 128 124 125 127 132 137 140 140 135 119 97 81 75 82 85 80 65 45 36 34 27 13 4 1 360 1 4 6 5
150 149 151 150 149 149 146 138 122 102 93 104 136 136 105 101 134 129 120 170 197 197 192 164 153 156 148 161 172 168 158 152 145 139 131 124 121 120 126 130 127 119 113 108 105 102 97 97 91 76 47 0 356 2 3 359 356 354 354 356 358 359 360
146 142 144 146 149 152 148 135 117 98 86 89 105 123 123 124 139 135 117 103 119 150 162 158 158 162 153 199 193 178 171 165 150 141 138 132 123 116 122 133 134 125 115 107 100 96 87 74 44 10 343 315 316 326 335 342 344 341 344 349 349 349 352
147 143 142 144 147 152 154 142 123 108 98 89 89 114 134 131 128 131 114 94 96 120 145 156 151 115 94 225 206 182 174 170 156 146 145 145 138 122 116 126 135 130 119 109 103 98 85 58 2 332 323 311 304 306 313 319 321 322 329 338 340 340 343
147 146 147 147 146 146 146 142 135 125 112 96 91 109 128 130 133 140 127 106 103 119 137 148 138 104 102 146 180 177 172 165 156 152 152 154 157 150 133 126 130 123 106 101 110 119 139 347 335 325 323 318 308 302 302 302 300 301 310 323 331 332 334
146 143 142 142 145 145 142 139 138 134 120 106 94 99 125 138 145 149 141 130 131 139 144 145 133 110 105 124 150 166 170 162 155 160 166 165 166 170 174 183 202 224 263 288 15 53 348 345 344 336 331 327 321 313 303 292 285 289 299 312 320 322 326
142 135 129 132 143 151 148 139 136 132 122 111 92 86 130 148 154 158 156 151 150 153 155 156 156 148 135 137 150 160 164 162 158 165 182 192 193 198 208 231 254 254 261 273 280 297 335 347 349 350 345 340 339 338 325 303 291 293 300 307 312 316 320
142 137 136 139 145 155 162 157 153 148 136 125 118 118 137 152 162 170 175 174 166 159 163 170 176 177 176 181 183 179 179 185 181 180 202 224 234 243 248 255 271 278 267 259 262 280 312 329 340 347 346 345 353 0 355 335 314 302 299 302 309 316 318
147 141 144 150 147 147 151 155 156 147 130 123 127 126 129 142 154 161 167 170 167 163 170 175 171 169 184 218 220 198 196 204 198 193 214 240 258 266 265 265 276 287 282 260 264 283 304 320 332 340 341 343 353 3 2 350 331 312 304 304 311 317 317
150 142 138 138 130 120 120 126 125 117 109 107 109 110 112 121 128 130 137 150 162 171 176 179 178 176 186 217 234 219 212 216 211 209 225 240 254 266 271 273 280 291 294 278 280 294 309 323 332 334 333 334 337 345 352 351 343 334 326 318 314 315 313
140 136 129 124 116 111 114 119 117 111 105 100 99 99 96 94 97 100 102 108 131 160 174 184 197 211 220 230 243 242 230 226 226 228 232 235 245 262 270 273 273 272 268 266 275 287 299 310 319 323 322 323 326 333 347 355 359 358 349 331 317 313 310